カタログに戻る

STARLINK-35503

運用中通信VLEO
NORAD 66245·PAYLOAD·🇺🇸 United States

打ち上げ Oct 29, 2025 から Cape Canaveral Space Force Station

Loading…

次のパス (今後24時間)

TLE

最新Source: CelesTrak SupGP

元期: Sep 14, 2026, 22:56 UTC

1 66245C 25245M   26257.95604167 -.00036053  00000+0 -10653-2 0  2573
2 66245  53.1570 123.6082 0001286  81.8923 164.6490 15.34404332    16

AllMySatでSTARLINK-35503をリアルタイム追跡

Download on the App Store